Tracking 30743 objects as of 21-Jun-2025
HD Live streaming from Space Station
objects crossing your sky now

NOAA 16 DEB

Track NOAA 16 DEB now!
10-day predictions


NORAD ID: 41528
Int'l Code: 2000-055NC
Perigee: 640.9 km
Apogee: 660.3 km
Inclination: 98.8 °
Period: 97.6 minutes
Semi major axis: 7021 km
RCS: Unknown
Launch date: September 21, 2000
Source: United States (US)
Launch site: AIR FORCE WESTERN TEST RANGE (AFWTR)

Note: This is SATELLITE DEBRIS
Your satellite tracking list
Your tracking list is empty




NASA's NSSDC Master Catalog

Two Line Element Set (TLE):
1 41528U 00055NC  25172.24267332  .00027675  00000-0  40502-2 0  9996
2 41528  98.7587 281.2036 0013805 168.2750 191.8781 14.75533936480423
Source of the keplerian elements: AFSPC